Regional Weather Roundup
Issued by NWS Upton, NY

Current Version | Previous Version | Graphics & Text | Print | Product List | Glossary Off
Versions: 1 2 3 4 5 6 7 8 9 10 11 12 13 14 15 16 17 18 19 20 21 22 23 24 25 26 27 28 29 30 31 32 33 34 35 36 37 38 39 40 41 42 43 44 45 46 47 48 49 50

000
ASUS41 KOKX 102105
RWROKX

REGIONAL WEATHER ROUNDUP
NATIONAL WEATHER SERVICE NEW YORK NY
500 PM EDT THU JUL 10 2014

NOTE: "FAIR" INDICATES FEW OR NO CLOUDS BELOW 12,000 FEET WITH NO
SIGNIFICANT WEATHER AND/OR OBSTRUCTIONS TO VISIBILITY.

NYZ071-072-176-178-NJZ106-104-102200-
NEW YORK CITY METRO AREA


CITY           SKY/WX    TMP DP  RH WIND       PRES   REMARKS
CENTRAL PARK   SUNNY     82  60  47 VRB6      30.11S
LAGUARDIA APRT MOSUNNY   80  59  48 NE8       30.08F
KENNEDY INTL   PTSUNNY   80  59  48 SE14      30.09S
NEWARK/LIBERTY MOSUNNY   83  60  45 SE9G17    30.07F
BRNX BOT. GARD   N/A    N/A N/A N/A E14       30.10S
TETERBORO      SUNNY     86  58  38 VRB6      30.06F
$$

NYZ177-179-078>081-102200-
LONG ISLAND NEW YORK

CITY           SKY/WX    TMP DP  RH WIND       PRES   REMARKS
FARMINGDALE    SUNNY     80  61  52 CALM      30.08F
ISLIP          PTSUNNY   84  59  42 VRB5      30.07F
SHIRLEY        SUNNY     79  62  56 SE8       30.09F
WESTHAMPTON    MOSUNNY   77  62  59 VRB6      30.10F
MONTAUK POINT    N/A     78  63  59 CALM      30.10F
$$

NYZ052-065-067-102200-
HUDSON VALLEY

CITY           SKY/WX    TMP DP  RH WIND       PRES   REMARKS
WHITE PLAINS   MOSUNNY   82  59  45 N7        30.09F
NEWBURGH       MOSUNNY   79  61  53 E7        30.12S
MONTGOMERY     SUNNY     80  60  50 SW5       30.10F
POUGHKEEPSIE   MOSUNNY   81  58  45 NW6       30.09F
ALBANY         MOSUNNY   79  49  34 W12       30.12S
$$

NJZ001-105-106-008-010-013-015-019>022-104-102200-
NEW JERSEY

CITY           SKY/WX    TMP DP  RH WIND       PRES   REMARKS
NEWARK/LIBERTY MOSUNNY   83  60  45 SE9G17    30.07F
TETERBORO      SUNNY     86  58  38 VRB6      30.06F
CALDWELL       MOSUNNY   81  60  48 CALM      30.08F
MORRISTOWN     MOSUNNY   81  63  54 CALM      30.08F
SOMERVILLE     SUNNY     82  61  48 CALM      30.05F
LINDEN         FAIR      83  60  45 S9        30.09S
SUSSEX         PTSUNNY   80  63  55 N5        30.11S
ANDOVER          N/A     79  62  56 CALM      30.10F
TRENTON        SUNNY     83  60  45 VRB5      30.06F
MILLVILLE      LGT RAIN  74  71  91 SE6       30.08S
ATLANTIC CITY  CLOUDY    73  68  84 E8        30.08S
WRIGHTSTOWN    MOSUNNY   82  64  55 E10       30.05F
TOMS RIVER     PTSUNNY   75  64  69 E8        30.09F
BELMAR         MOSUNNY   77  59  53 E10       30.10S
$$

PAZ047>061-062-071-102200-
EASTERN PENNSYLVANIA

CITY           SKY/WX    TMP DP  RH WIND       PRES   REMARKS
PHILADELPHIA   MOSUNNY   86  61  42 NE9       30.06F
ALLENTOWN      CLOUDY    79  63  57 NE5       30.08F
SCRANTON       PTSUNNY   78  56  46 N6        30.12S
$$

CTZ002-004>006-009-010-012-RIZ004-006-007-MAZ004-011-015-102200-
SOUTHERN NEW ENGLAND
 IN CT

CITY           SKY/WX    TMP DP  RH WIND       PRES   REMARKS
BRADLEY INTL   MOSUNNY   84  56  38 NW6       30.08F
HARTFORD       SUNNY     83  54  36 VRB7      30.07F
DANBURY        SUNNY     80  56  43 N6        30.11F
WTRBRY/OXFORD  MOSUNNY   79  59  50 N3        30.14S
BRIDGEPORT     SUNNY     78  59  51 S6        30.09S
MERIDEN        SUNNY     83  57  41 CALM      30.08F
NEW HAVEN      PTSUNNY   80  62  54 S8        30.09S
CHESTER        FAIR      79  61  53 N5        30.10F
GROTON         MOSUNNY   74  66  76 SW7       30.08S
WILLIMANTIC    SUNNY     81  57  43 NW6       30.09F

 IN RI

CITY           SKY/WX    TMP DP  RH WIND       PRES   REMARKS
PROVIDENCE     CLOUDY    81  60  48 CALM      30.08F
BLOCK ISLAND   CLOUDY    75  61  60 S3        30.10F
WESTERLY       PTSUNNY   79  63  57 S7        30.09F

 IN MA

CITY           SKY/WX    TMP DP  RH WIND       PRES   REMARKS
BOSTON         PTSUNNY   82  54  37 W7        30.08S
WORCESTER      SUNNY     75  54  47 VRB7      30.13S
WESTFIELD      SUNNY     82  53  36 W6        30.09F
PROVINCETOWN   NOT AVBL
NANTUCKET      CLOUDY    73  66  78 SE3       30.09F
$$

ANZ330-335-338-340-345-350-353-355-102200-
COASTAL MARINE OBSERVATIONS


STATION/POSITION TIME  SKY/WX   TEMP    WIND        PRES    VSBY  WAVE
                                AIR SEA DIR/SP/G                  HT/PER
                 (UTC)          (F)     (DEG/KT/KT) (MB)    (MI)  (FT/S)
NY HARB ENTRANCE NOT AVBL
4S FIRE IS       2000               70                N/A           3/ 6
23SW MTP         2100            70 67              1018.4          4/ 7
HUDSON CANYON    2100            70 70   20/  6/  8 1018.3          3/ 7
EXECUTION ROCKS  2100            72 67  100/  6/  6   N/A
WESTERN LI SOUND 2100            74     120/  4/  6   N/A           0
CENTRAL LI SOUND 2100            73 73  190/  4/  4   N/A           0
EASTERN LI SOUND 2000            72 67  190/  4/  4   N/A
ROBBINS REEF     2100            72     170/ 17/ 18   N/A
$$


>>>>>>>>>>>>>>>>>>>>>>>>>>>> KEY <<<<<<<<<<<<<<<<<<<<<<<<<<<
>                                                          <
>     SKY/WX - SKY CONDITION/PRESENT WEATHER               <
>     TMP    - TEMPERATURE IN FAHRENHEIT                   <
>     DP     - DEWPOINT IN FAHRENHEIT                      <
>     RH     - RELATIVE HUMIDITY IN PERCENT                <
>     WIND   - DIRECTION AND SPEED IN MPH                  <
>     PRES   - MEAN SEA LEVEL PRESSURE IN INCHES OF HG     <
>     WCI    - WIND CHILL INDEX                            <
>     VSB    - VISIBILITY IN MILES                         <
>     HX     - HEAT INDEX                                  <
>     TC     - TEMPERATURE IN CELSIUS                      <
>     VRB    - VARIABLE WIND DIRECTION                     <
>                                                          <
>>>>>>>>>>>>>>>>>>>>>>>>>>>> KEY <<<<<<<<<<<<<<<<<<<<<<<<<<<





USA.gov is the U.S. government's official web portal to all federal, state and local government web resources and services.